• Join FlightAware (Why Join?)
  • Login
  • US Flag GB Flag 
11:36 EST


 

Airport Tracker/Info


-or-


 

Live Flight TrackerFlight Track Log ✈ PDT4373 ✈ 06-Jan-2014 ✈ KBGM - KPHL

Flight Track Log - Related Links

Times and Time Zones

All times are in EST time to prevent confusion due to time zone crossing. See the PDT4373 flight status page for this flight to view local times or setup timezone preferences in your user account.

Time Position Orientation Groundspeed Altitude Reporting Facility
EST Latitude Longitude Course Direction KTS MPH feet Rate Location/Type
11:52 42.0140 -75.9160 180° South  Level Estimated
11:53 41.9640 -75.9193 183° South  Level FlightAware Approximate
11:54 41.9141 -75.9226 183° South  Level FlightAware Approximate
11:55 41.8656 -75.9059 154° Southeast  Level Estimated
11:56 41.8172 -75.8892 160° South  Level Estimated
11:57 41.7673 -75.8831 175° South  Level FlightAware Approximate
11:58 41.7123 -75.8639 159° South  Level Estimated
11:59 41.6569 -75.8472 167° South  Level FlightAware Approximate
12:00 41.6019 -75.8280 153° Southeast  Level Estimated
12:01 41.5469 -75.8088 161° South  Level Estimated
12:02 41.4930 -75.7846 161° South  Level FlightAware Approximate
12:03 41.4391 -75.7604 161° South  Level FlightAware Approximate
12:04 41.3852 -75.7363 161° South  Level FlightAware Approximate
12:05 41.3301 -75.7178 162° South  Level Estimated
12:06 41.2764 -75.6931 161° South  Level FlightAware Approximate
12:07 41.2226 -75.6684 161° South  Level FlightAware Approximate
12:08 41.1689 -75.6438 161° South  Level FlightAware Approximate
12:09 41.1152 -75.6192 161° South  Level FlightAware Approximate
12:10 41.0598 -75.6021 163° South  Level Estimated
12:11 41.0059 -75.5781 161° South  Level FlightAware Approximate
12:12 40.9520 -75.5541 161° South  Level FlightAware Approximate
12:13 40.8981 -75.5302 161° South  Level FlightAware Approximate
12:14 40.8442 -75.5063 161° South  Level FlightAware Approximate
12:15 40.7886 -75.4909 190° South  Level Estimated
12:16 40.7318 -75.4927 181° South  Level FlightAware Approximate
12:17 40.6749 -75.4945 181° South  Level FlightAware Approximate
12:18 40.6181 -75.4963 181° South  Level FlightAware Approximate
12:18 40.6667 -75.4667 143° Southeast 179 206 6,100  Level Philadelphia TRACON
12:19 40.5544 -75.4743 187° South  Level Estimated
12:19 40.6167 -75.4833 194° South 187 215 6,100  Level Philadelphia TRACON
12:20 40.4908 -75.4523 190° South  Level Estimated
12:20 40.5667 -75.5000 194° South 203 234 6,100  Level Philadelphia TRACON
12:21 40.4279 -75.4779 197° South  Level FlightAware Approximate
12:21 40.5167 -75.4833 166° South 231 266 6,100  Level Philadelphia TRACON
12:22 40.3650 -75.5034 197° South  Level FlightAware Approximate
12:22 40.4500 -75.4500 159° South 233 268 6,000  Level Philadelphia TRACON
12:23 40.3041 -75.4707 143° Southeast  Level Estimated
12:23 40.3833 -75.4000 150° Southeast 236 272 6,000  Level Philadelphia TRACON
12:24 40.3333 -75.3667 153° Southeast 234 269 6,000  Level Philadelphia TRACON
12:25 40.2833 -75.3333 153° Southeast 231 266 6,000  Level Philadelphia TRACON
12:26 40.2333 -75.2833 143° Southeast 230 265 6,100  Climbing Philadelphia TRACON
12:27 40.1833 -75.2333 143° Southeast 220 253 6,100 -60 Level Philadelphia TRACON
12:28 40.1333 -75.1833 143° Southeast 233 268 6,000 -60 Descending Philadelphia TRACON
12:29 40.1000 -75.1167 123° Southeast 232 267 6,000  Level Philadelphia TRACON
12:30 40.0500 -75.0500 134° Southeast 230 265 6,000 -60 Level Philadelphia TRACON
12:31 40.0167 -75.0000 131° Southeast 172 198 5,900 -600 Descending Philadelphia TRACON
12:32 39.9833 -74.9833 159° South 175 201 4,900 -1,080 Descending Philadelphia TRACON
12:33 39.9333 -74.9833 180° South 181 208 3,800 -900 Descending Philadelphia TRACON
12:34 39.9167 -75.0333 247° West 150 173 3,200 -780 Descending Philadelphia TRACON
12:35 39.9000 -75.0833 247° West 157 181 2,300 -900 Descending Philadelphia TRACON
12:36 39.9000 -75.1333 270° West 125 144 1,500 -720 Descending Philadelphia TRACON
12:37 39.8833 -75.1667 237° Southwest 101 116 1,000 -600 Descending Philadelphia TRACON
12:38 39.8833 -75.2000 270° West 106 122 300 -660 Descending Philadelphia TRACON